Radiation Dose at Monitoring Post of Fukushima Daini Nuclear Power Station
Date,Time,MP-1(microSv/h),MP-2(microSv/h),MP-3(microSv/h),MP-4(microSv/h),MP-5(microSv/h),MP-6(microSv/h),MP-7(microSv/h),Wind Direction,Wind Velocity(m/s),Rain
2021/07/27,00:00,0.159,0.148,0.233,0.225,0.230,0.122,0.079,north-northwest,10.1,Yes
2021/07/27,00:10,0.159,0.147,0.233,0.226,0.226,0.122,0.079,north-northwest,10.7,Yes
2021/07/27,00:20,0.159,0.147,0.232,0.224,0.230,0.123,0.078,north,9.2,Yes
2021/07/27,00:30,0.161,0.148,0.233,0.226,0.229,0.123,0.079,north-northwest,9.5,Yes
2021/07/27,00:40,0.160,0.145,0.232,0.224,0.227,0.122,0.079,north-northwest,9.6,Yes
2021/07/27,00:50,0.160,0.147,0.233,0.225,0.230,0.123,0.079,north-northwest,10.6,Yes
2021/07/27,01:00,0.160,0.147,0.233,0.225,0.227,0.122,0.079,north-northwest,9.3,No
2021/07/27,01:10,0.159,0.147,0.232,0.225,0.229,0.123,0.078,north-northwest,10.9,Yes
2021/07/27,01:20,0.160,0.147,0.235,0.226,0.229,0.123,0.079,north-northwest,10.6,Yes
2021/07/27,01:30,0.159,0.146,0.231,0.224,0.226,0.122,0.079,north-northwest,10.4,Yes
2021/07/27,01:40,0.159,0.147,0.233,0.225,0.230,0.123,0.079,north-northwest,11.2,Yes
2021/07/27,01:50,0.159,0.147,0.231,0.224,0.228,0.123,0.079,north-northwest,10.6,Yes
2021/07/27,02:00,0.158,0.147,0.232,0.222,0.226,0.122,0.079,north-northwest,9.6,Yes
2021/07/27,02:10,0.159,0.147,0.231,0.225,0.229,0.123,0.078,north-northwest,10.6,Yes
2021/07/27,02:20,0.159,0.146,0.231,0.223,0.227,0.123,0.079,north-northwest,9.8,Yes
2021/07/27,02:30,0.159,0.147,0.233,0.225,0.229,0.123,0.078,north-northwest,10.1,Yes
2021/07/27,02:40,0.160,0.147,0.232,0.226,0.228,0.124,0.079,north-northwest,10.3,Yes
2021/07/27,02:50,0.158,0.147,0.233,0.223,0.226,0.123,0.078,north-northwest,10.9,No
2021/07/27,03:00,0.159,0.146,0.232,0.226,0.229,0.122,0.079,northwest,10.1,Yes
2021/07/27,03:10,0.158,0.148,0.231,0.224,0.226,0.123,0.078,north-northwest,10.6,Yes
2021/07/27,03:20,0.158,0.147,0.232,0.224,0.227,0.123,0.078,north-northwest,11.2,Yes
2021/07/27,03:30,0.160,0.146,0.230,0.225,0.229,0.123,0.079,north-northwest,11.1,Yes
2021/07/27,03:40,0.159,0.148,0.233,0.223,0.226,0.123,0.078,north-northwest,11.2,Yes
2021/07/27,03:50,0.159,0.146,0.232,0.226,0.228,0.123,0.079,north-northwest,11.4,Yes
2021/07/27,04:00,0.161,0.148,0.232,0.224,0.227,0.123,0.080,north-northwest,11.1,Yes
2021/07/27,04:10,0.158,0.148,0.231,0.224,0.229,0.123,0.079,north-northwest,12.0,Yes
2021/07/27,04:20,0.160,0.147,0.230,0.224,0.229,0.123,0.080,north-northwest,12.1,Yes
2021/07/27,04:30,0.159,0.147,0.232,0.222,0.225,0.123,0.078,north-northwest,11.8,Yes
2021/07/27,04:40,0.159,0.147,0.231,0.225,0.229,0.122,0.079,north-northwest,11.2,Yes
2021/07/27,04:50,0.160,0.147,0.233,0.223,0.227,0.123,0.078,north-northwest,11.5,Yes
2021/07/27,05:00,0.158,0.146,0.231,0.223,0.228,0.122,0.077,northwest,10.9,Yes
2021/07/27,05:10,0.159,0.148,0.231,0.224,0.228,0.123,0.079,north-northwest,11.5,Yes
2021/07/27,05:20,0.158,0.148,0.231,0.223,0.226,0.123,0.079,north-northwest,11.5,Yes
2021/07/27,05:30,0.160,0.147,0.231,0.225,0.228,0.122,0.079,north-northwest,10.9,Yes
2021/07/27,05:40,0.159,0.148,0.232,0.224,0.227,0.123,0.079,north-northwest,10.3,Yes
2021/07/27,05:50,0.158,0.146,0.231,0.224,0.228,0.124,0.079,north-northwest,8.8,Yes
2021/07/27,06:00,0.159,0.148,0.233,0.224,0.228,0.124,0.079,north-northwest,8.5,Yes
2021/07/27,06:10,0.158,0.146,0.230,0.221,0.225,0.123,0.078,north-northwest,10.6,Yes
2021/07/27,06:20,0.159,0.147,0.228,0.221,0.226,0.122,0.079,-,CALM,Yes
2021/07/27,06:30,0.158,0.145,0.227,0.219,0.225,0.120,0.080,north-northwest,9.2,Yes
2021/07/27,06:40,0.156,0.147,0.226,0.221,0.225,0.123,0.080,north-northwest,9.5,Yes
2021/07/27,06:50,0.157,0.147,0.228,0.218,0.227,0.122,0.080,north-northwest,8.9,Yes
2021/07/27,07:00,0.154,0.145,0.224,0.217,0.224,0.120,0.079,north-northwest,9.3,Yes
2021/07/27,07:10,0.155,0.147,0.226,0.219,0.227,0.122,0.079,north-northwest,9.2,Yes
2021/07/27,07:20,0.153,0.144,0.225,0.217,0.225,0.121,0.079,northwest,8.5,Yes
2021/07/27,07:30,0.150,0.144,0.219,0.214,0.220,0.119,0.078,north-northwest,8.7,Yes
2021/07/27,07:40,0.149,0.145,0.220,0.213,0.224,0.120,0.078,north-northwest,11.2,Yes
2021/07/27,07:50,0.149,0.145,0.219,0.212,0.223,0.119,0.079,north-northwest,9.8,Yes
2021/07/27,08:00,0.150,0.145,0.221,0.215,0.224,0.119,0.078,north-northwest,9.8,Yes
2021/07/27,08:10,0.151,0.145,0.223,0.217,0.226,0.121,0.079,north-northwest,10.1,Yes
2021/07/27,08:20,0.151,0.146,0.223,0.216,0.225,0.120,0.078,north-northwest,10.1,Yes
2021/07/27,08:30,0.153,0.145,0.226,0.218,0.225,0.120,0.078,north-northwest,9.8,Yes
2021/07/27,08:40,0.151,0.144,0.223,0.217,0.227,0.120,0.079,north-northwest,9.0,Yes
2021/07/27,08:50,0.152,0.145,0.225,0.218,0.223,0.120,0.078,north-northwest,7.9,Yes
2021/07/27,09:00,0.153,0.144,0.225,0.220,0.225,0.120,0.078,north-northwest,8.5,Yes
2021/07/27,09:10,0.153,0.144,0.223,0.217,0.225,0.120,0.078,north,8.1,Yes
2021/07/27,09:20,0.153,0.145,0.223,0.220,0.224,0.120,0.078,north-northwest,8.3,Yes
2021/07/27,09:30,0.153,0.144,0.226,0.221,0.226,0.120,0.079,north,9.5,Yes
2021/07/27,09:40,0.152,0.144,0.224,0.219,0.226,0.120,0.079,north,9.8,No
2021/07/27,09:50,0.154,0.145,0.226,0.220,0.223,0.120,0.078,north,8.6,No
2021/07/27,10:00,0.155,0.144,0.226,0.222,0.226,0.119,0.078,north,9.2,No
2021/07/27,10:10,0.153,0.144,0.225,0.220,0.227,0.121,0.079,north-northwest,8.9,No
2021/07/27,10:20,0.154,0.144,0.228,0.219,0.223,0.120,0.077,north,9.5,No
2021/07/27,10:30,0.154,0.144,0.228,0.223,0.224,0.120,0.077,north,8.6,No
2021/07/27,10:40,0.154,0.144,0.226,0.221,0.228,0.120,0.078,north,9.8,No
2021/07/27,10:50,0.153,0.144,0.225,0.221,0.226,0.120,0.077,north,8.1,No
2021/07/27,11:00,0.154,0.145,0.224,0.219,0.226,0.120,0.077,north,8.7,No
2021/07/27,11:10,0.156,0.144,0.228,0.218,0.225,0.119,0.077,north,6.7,No
2021/07/27,11:20,0.155,0.144,0.229,0.219,0.223,0.120,0.078,north,8.6,No
2021/07/27,11:30,0.155,0.143,0.228,0.219,0.223,0.119,0.077,north,4.7,No
2021/07/27,11:40,0.154,0.143,0.227,0.220,0.225,0.120,0.077,north,5.7,No
2021/07/27,11:50,0.154,0.144,0.227,0.220,0.224,0.120,0.077,north,6.1,No
2021/07/27,12:00,0.153,0.143,0.227,0.221,0.224,0.120,0.077,north,5.6,No
2021/07/27,12:10,0.156,0.143,0.227,0.220,0.225,0.121,0.077,north,5.9,No
2021/07/27,12:20,0.156,0.143,0.228,0.221,0.227,0.121,0.077,north,6.1,No
2021/07/27,12:30,0.156,0.144,0.226,0.220,0.226,0.121,0.077,north,7.9,No
2021/07/27,12:40,0.155,0.143,0.228,0.221,0.225,0.121,0.077,north,6.8,No
2021/07/27,12:50,0.155,0.144,0.228,0.221,0.226,0.121,0.077,north-northwest,5.7,No
2021/07/27,13:00,0.155,0.144,0.228,0.220,0.226,0.120,0.077,north,5.3,No
2021/07/27,13:10,0.154,0.143,0.228,0.221,0.226,0.122,0.077,north-northwest,5.1,No
2021/07/27,13:20,0.156,0.144,0.228,0.222,0.226,0.122,0.077,north-northwest,4.3,No
2021/07/27,13:30,0.155,0.144,0.228,0.222,0.227,0.121,0.077,north,5.4,No
2021/07/27,13:40,0.156,0.145,0.228,0.222,0.227,0.121,0.077,north,6.2,No
2021/07/27,13:50,0.155,0.144,0.229,0.222,0.228,0.122,0.077,north,6.4,No
2021/07/27,14:00,0.154,0.144,0.228,0.222,0.227,0.120,0.077,north-northwest,7.2,No
2021/07/27,14:10,0.158,0.144,0.229,0.222,0.226,0.122,0.077,north-northwest,8.2,No
2021/07/27,14:20,0.158,0.144,0.227,0.222,0.227,0.122,0.078,north,9.0,No
2021/07/27,14:30,0.157,0.144,0.228,0.222,0.226,0.121,0.078,north-northwest,7.9,No
2021/07/27,14:40,0.156,0.145,0.232,0.222,0.226,0.121,0.077,north-northwest,9.2,No
2021/07/27,14:50,0.156,0.147,0.231,0.224,0.225,0.121,0.077,north-northwest,6.7,No
2021/07/27,15:00,0.158,0.146,0.230,0.227,0.226,0.121,0.078,north-northwest,6.6,No
2021/07/27,15:10,0.158,0.144,0.228,0.224,0.230,0.122,0.078,north-northwest,8.8,Yes
2021/07/27,15:20,0.157,0.144,0.230,0.224,0.229,0.123,0.078,north-northwest,9.3,Yes
2021/07/27,15:30,0.155,0.147,0.232,0.222,0.227,0.122,0.077,north-northwest,9.2,Yes
2021/07/27,15:40,0.158,0.146,0.230,0.225,0.228,0.122,0.078,north-northwest,8.5,Yes
2021/07/27,15:50,0.159,0.145,0.231,0.223,0.231,0.123,0.079,north,8.8,Yes
2021/07/27,16:00,0.156,0.145,0.230,0.221,0.226,0.123,0.079,north-northwest,6.0,Yes
2021/07/27,16:10,0.155,0.145,0.222,0.216,0.222,0.118,0.078,-,CALM,Yes
2021/07/27,16:20,0.152,0.142,0.218,0.213,0.224,0.119,0.080,north,9.6,Yes
2021/07/27,16:30,0.150,0.146,0.221,0.215,0.225,0.121,0.079,north-northeast,10.4,Yes
2021/07/27,16:40,0.152,0.145,0.222,0.219,0.226,0.121,0.080,north,8.5,Yes
2021/07/27,16:50,0.153,0.146,0.226,0.220,0.228,0.121,0.080,north,8.4,Yes
2021/07/27,17:00,0.153,0.146,0.224,0.219,0.225,0.122,0.080,north,9.2,Yes
2021/07/27,17:10,0.155,0.145,0.225,0.222,0.228,0.122,0.080,north,9.0,Yes
2021/07/27,17:20,0.154,0.146,0.226,0.220,0.228,0.121,0.079,north,8.6,Yes
2021/07/27,17:30,0.154,0.146,0.223,0.222,0.225,0.121,0.078,north,9.5,Yes
2021/07/27,17:40,0.157,0.145,0.227,0.221,0.228,0.121,0.079,north,7.5,Yes
2021/07/27,17:50,0.154,0.145,0.224,0.218,0.226,0.120,0.079,-,CALM,Yes
2021/07/27,18:00,0.152,0.143,0.220,0.215,0.223,0.120,0.079,north-northwest,8.6,Yes
2021/07/27,18:10,0.151,0.145,0.220,0.216,0.226,0.119,0.080,north,10.4,Yes
2021/07/27,18:20,0.150,0.145,0.219,0.216,0.226,0.122,0.081,-,CALM,Yes
2021/07/27,18:30,0.151,0.145,0.218,0.216,0.224,0.121,0.080,north,10.1,Yes
2021/07/27,18:40,0.150,0.146,0.220,0.215,0.227,0.120,0.080,north-northwest,10.1,Yes
2021/07/27,18:50,0.148,0.145,0.216,0.212,0.223,0.119,0.079,-,CALM,Yes
2021/07/27,19:00,0.148,0.143,0.214,0.212,0.221,0.118,0.079,north-northwest,11.1,Yes
2021/07/27,19:10,0.147,0.145,0.216,0.212,0.226,0.118,0.080,north-northwest,11.7,Yes
2021/07/27,19:20,0.149,0.144,0.217,0.216,0.223,0.120,0.080,north-northwest,10.9,Yes
2021/07/27,19:30,0.149,0.145,0.217,0.214,0.222,0.119,0.079,north,10.9,Yes
2021/07/27,19:40,0.148,0.145,0.215,0.213,0.227,0.119,0.081,north,13.1,Yes
2021/07/27,19:50,0.151,0.144,0.219,0.218,0.225,0.120,0.080,north,11.8,No
2021/07/27,20:00,0.153,0.144,0.221,0.219,0.225,0.120,0.079,north-northwest,10.4,Yes
2021/07/27,20:10,0.150,0.144,0.217,0.215,0.225,0.118,0.079,north,11.1,Yes
2021/07/27,20:20,0.151,0.144,0.221,0.218,0.222,0.119,0.078,north-northwest,12.0,Yes
2021/07/27,20:30,0.152,0.144,0.220,0.217,0.226,0.119,0.079,north,11.5,Yes
2021/07/27,20:40,0.152,0.144,0.220,0.216,0.227,0.119,0.079,north,12.8,Yes
2021/07/27,20:50,0.154,0.145,0.222,0.219,0.224,0.120,0.079,north-northwest,12.2,Yes
2021/07/27,21:00,0.153,0.147,0.221,0.219,0.228,0.121,0.081,north,12.9,Yes
2021/07/27,21:10,0.153,0.145,0.223,0.218,0.228,0.119,0.080,north-northwest,11.1,Yes
2021/07/27,21:20,0.154,0.146,0.224,0.222,0.225,0.121,0.080,north-northwest,10.4,Yes
2021/07/27,21:30,0.154,0.146,0.222,0.219,0.228,0.120,0.080,north-northwest,11.4,Yes
2021/07/27,21:40,0.154,0.145,0.225,0.220,0.227,0.120,0.079,north-northwest,11.2,Yes
2021/07/27,21:50,0.154,0.145,0.222,0.220,0.224,0.121,0.079,north-northwest,12.9,Yes
2021/07/27,22:00,0.152,0.144,0.221,0.217,0.227,0.120,0.080,-,CALM,Yes
2021/07/27,22:10,0.152,0.144,0.221,0.218,0.225,0.120,0.080,-,CALM,Yes
2021/07/27,22:20,0.152,0.143,0.217,0.215,0.223,0.119,0.080,north,8.7,Yes
2021/07/27,22:30,0.148,0.142,0.216,0.211,0.224,0.119,0.080,-,CALM,Yes
2021/07/27,22:40,0.147,0.144,0.216,0.213,0.222,0.119,0.079,north,16.3,Yes
2021/07/27,22:50,0.148,0.143,0.215,0.214,0.222,0.119,0.080,north-northwest,11.8,Yes
2021/07/27,23:00,0.147,0.144,0.218,0.211,0.224,0.119,0.080,-,CALM,Yes
2021/07/27,23:10,0.149,0.145,0.216,0.215,0.223,0.120,0.081,north-northwest,10.1,Yes
2021/07/27,23:20,0.151,0.144,0.218,0.216,0.226,0.120,0.082,north-northwest,11.7,Yes
2021/07/27,23:30,0.149,0.144,0.216,0.213,0.225,0.119,0.080,-,CALM,Yes
2021/07/27,23:40,0.147,0.144,0.212,0.213,0.222,0.118,0.080,-,CALM,Yes
2021/07/27,23:50,0.141,0.141,0.210,0.207,0.221,0.116,0.079,-,CALM,Yes
